Flight Track Log - Related Links

Times and Time Zones

All times are in EDT time to prevent confusion due to time zone crossing. See the UAL33 flight status page for this flight to view local times or setup timezone preferences in your user account.

Time Position Orientation Groundspeed Altitude Reporting Facility
EDT Latitude Longitude Course Direction KTS MPH feet Rate Location/Type
17:34 29.9445 -95.3434 168° South 172 198 1,400  Level FlightAware ADS-B
17:34 29.9422 -95.3446 204° Southwest 175 201 1,500 1,200 Climbing FlightAware ADS-B
17:34 29.9377 -95.3483 215° Southwest 186 214 1,600 1,200 Climbing FlightAware ADS-B
17:34 29.9359 -95.3506 228° Southwest 188 216 1,700 1,714 Climbing FlightAware ADS-B
17:34 29.9338 -95.3542 236° Southwest 194 223 1,800 857 Climbing FlightAware ADS-B
17:34 29.9326 -95.3573 246° West 199 229 1,800 857 Level FlightAware ADS-B
17:34 29.9316 -95.3613 254° West 205 236 1,900 1,714 Climbing FlightAware ADS-B
17:34 29.9311 -95.3648 261° West 210 242 2,000 1,714 Climbing FlightAware ADS-B
17:34 29.9311 -95.3696 270° West 215 247 2,100 1,500 Climbing FlightAware ADS-B
17:35 29.9317 -95.3743 278° West 223 257 2,200 2,000 Climbing FlightAware ADS-B
17:35 29.9332 -95.3799 287° West 227 261 2,400 2,400 Climbing FlightAware ADS-B
17:35 29.9356 -95.3851 298° West 236 272 2,600 2,250 Climbing FlightAware ADS-B
17:35 29.9380 -95.3889 306° West 242 278 2,700 1,000 Climbing FlightAware ADS-B
17:35 29.9404 -95.3918 314° West 248 285 2,700 2,000 Level FlightAware ADS-B
17:35 29.9430 -95.3945 318° Northwest 252 290 2,900 3,429 Climbing FlightAware ADS-B
17:35 29.9461 -95.3970 325° Northwest 257 296 3,100 2,250 Climbing FlightAware ADS-B
17:35 29.9502 -95.3997 330° Northwest 260 299 3,200 2,571 Climbing FlightAware ADS-B
17:35 29.9543 -95.4017 337° Northwest 264 304 3,400 2,571 Climbing FlightAware ADS-B
17:35 29.9585 -95.4035 340° North 268 308 3,500 2,250 Climbing FlightAware ADS-B
17:35 29.9635 -95.4052 344° North 270 311 3,700 1,636 Climbing FlightAware ADS-B
17:35 29.9717 -95.4078 345° North 270 311 3,800 818 Climbing FlightAware ADS-B
17:36 29.9908 -95.4135 346° North 275 316 4,000 1,167 Climbing FlightAware ADS-B
17:36 30.0165 -95.4211 347° North 275 316 4,500 1,935 Climbing FlightAware ADS-B
17:36 30.0292 -95.4227 355° North 277 319 5,000 3,250 Climbing FlightAware ADS-B
17:36 30.0470 -95.4234 358° North 279 321 5,800 3,385 Climbing FlightAware ADS-B
17:37 30.0791 -95.4237 360° North 285 328 7,200 3,443 Climbing FlightAware ADS-B
17:37 30.1282 -95.4237 360° North 293 337 9,300 3,182 Climbing FlightAware ADS-B
17:38 30.1701 -95.4232 North 311 358 10,700 1,931 Climbing FlightAware ADS-B
17:39 30.2631 -95.4215 North 389 448 12,100 1,903 Climbing FlightAware ADS-B
17:40 30.4382 -95.4300 344° North 446 513 15,300 2,372 Climbing FlightAware ADS-B
17:41 30.5102 -95.4798 327° Northwest 451 519 17,200 2,505 Climbing FlightAware ADS-B
17:42 30.6206 -95.5673 326° Northwest 469 540 19,600 2,348 Climbing FlightAware ADS-B
17:42 30.6747 -95.6102 326° Northwest 474 545 20,800 1,987 Climbing FlightAware ADS-B
17:45 30.9110 -95.7976 326° Northwest 501 577 24,800 1,677 Climbing FlightAware ADS-B
17:46 31.1144 -95.9543 331° Northwest 527 606 27,200 1,512 Climbing FlightAware ADS-B
17:47 31.1723 -95.9785 343° North 529 609 28,000 1,810 Climbing FlightAware ADS-B
17:48 31.4140 -96.0358 349° North 530 610 31,000 1,746 Climbing FlightAware ADS-B
17:49 31.4945 -96.0546 349° North 530 610 31,900 1,665 Climbing FlightAware ADS-B
17:53 32.0390 -96.1830 349° North 508 585 38,300 1,578 Climbing FlightAware
17:53 32.1310 -96.2050 349° North 503 579 39,000 336 Climbing FlightAware
17:55 32.3260 -96.2200 359° North 507 583 39,000  Level FlightAware
17:55 32.4260 -96.2210 360° North 509 586 39,000  Level FlightAware
17:56 32.5240 -96.2220 360° North 506 582 39,000  Level FlightAware
17:57 32.6260 -96.2230 360° North 508 585 39,000  Level FlightAware
17:58 32.7160 -96.2240 359° North 508 585 39,000  Level FlightAware
17:58 32.8150 -96.2250 360° North 510 587 39,000 273 Level FlightAware
17:59 32.9230 -96.2270 359° North 511 588 39,400 574 Climbing FlightAware
18:00 33.0130 -96.2280 359° North 506 582 40,100 873 Climbing FlightAware
18:01 33.1720 -96.2300 359° North 500 575 41,000 635 Climbing FlightAware
18:02 33.2810 -96.2310 360° North 501 577 41,000  Level FlightAware
18:02 33.3630 -96.2320 359° North 500 575 41,000  Level FlightAware
18:03 33.4570 -96.2250 North 507 583 41,000  Level FlightAware
18:04 33.5550 -96.1700 25° Northeast 518 596 41,000  Level FlightAware
18:04 33.6290 -96.1180 30° Northeast 518 596 41,000  Level FlightAware
18:05 33.7470 -96.0340 31° Northeast 518 596 41,000  Level FlightAware
18:06 33.8330 -95.9730 31° Northeast 518 596 41,000  Level FlightAware
18:07 33.9380 -95.8980 31° Northeast 516 594 41,000  Level FlightAware
18:07 34.0130 -95.8450 30° Northeast 516 594 41,000  Level FlightAware
18:08 34.1080 -95.7770 31° Northeast 516 594 41,000  Level FlightAware
18:09 34.1980 -95.7120 31° Northeast 516 594 41,000  Level FlightAware
18:09 34.2730 -95.6580 31° Northeast 517 595 41,000  Level FlightAware
18:10 34.3640 -95.5930 31° Northeast 516 594 41,000  Level FlightAware
18:11 34.4740 -95.5130 31° Northeast 516 594 41,000  Level FlightAware
18:12 34.5570 -95.4530 31° Northeast 516 594 41,000  Level FlightAware
18:12 34.6450 -95.3890 31° Northeast 516 594 41,000  Level FlightAware
18:13 34.7510 -95.3110 31° Northeast 517 595 41,000  Level FlightAware
18:14 34.8050 -95.2720 31° Northeast 518 596 41,000  Level FlightAware
18:15 34.9050 -95.1990 31° Northeast 518 596 41,000  Level FlightAware
18:16 34.9900 -95.1360 31° Northeast 518 596 41,000  Level FlightAware
18:16 35.0600 -95.0850 31° Northeast 518 596 41,000  Level FlightAware
18:18 35.2580 -94.9390 31° Northeast 511 588 41,000  Level FlightAware
18:18 35.3540 -94.8670 31° Northeast 512 589 41,000  Level FlightAware
18:19 35.4450 -94.8000 31° Northeast 512 589 41,000  Level FlightAware
18:20 35.5270 -94.7380 32° Northeast 513 590 41,000  Level FlightAware
18:20 35.6120 -94.6750 31° Northeast 515 593 41,000  Level FlightAware
18:21 35.7020 -94.6070 32° Northeast 515 593 41,000  Level FlightAware
18:22 35.7870 -94.5440 31° Northeast 517 595 41,000  Level FlightAware
18:23 35.8740 -94.4780 32° Northeast 517 595 41,000  Level FlightAware
18:23 35.9550 -94.4170 31° Northeast 517 595 41,000  Level FlightAware
18:24 36.0400 -94.3520 32° Northeast 515 593 41,000  Level FlightAware
18:25 36.1260 -94.2870 31° Northeast 514 592 41,000  Level FlightAware
18:25 36.2140 -94.2200 32° Northeast 515 593 41,000  Level FlightAware
18:26 36.3000 -94.1550 31° Northeast 515 593 41,000  Level FlightAware
18:27 36.3850 -94.0890 32° Northeast 516 594 41,000  Level FlightAware
18:27 36.4700 -94.0240 32° Northeast 517 595 41,000  Level FlightAware
18:28 36.5520 -93.9610 32° Northeast 516 594 41,000  Level FlightAware
18:29 36.6420 -93.8920 32° Northeast 516 594 41,000  Level FlightAware
18:29 36.7230 -93.8290 32° Northeast 517 595 41,000  Level FlightAware
18:30 36.8130 -93.7590 32° Northeast 518 596 41,000  Level FlightAware
18:31 36.8920 -93.6980 32° Northeast 518 596 41,000  Level FlightAware
18:32 36.9820 -93.6280 32° Northeast 519 597 41,000  Level FlightAware
18:32 37.0660 -93.5600 33° Northeast 523 602 41,000  Level FlightAware
18:33 37.1310 -93.4800 44° Northeast 530 610 41,000  Level FlightAware
18:34 37.2120 -93.3700 47° Northeast 532 612 41,000  Level FlightAware
18:34 37.2680 -93.2940 47° Northeast 532 612 41,000  Level FlightAware
18:35 37.3490 -93.1850 47° Northeast 537 618 41,000  Level FlightAware
18:36 37.4160 -93.0930 47° Northeast 539 620 41,000  Level FlightAware
18:36 37.4860 -92.9970 47° Northeast 539 620 41,000  Level FlightAware
18:37 37.5610 -92.8950 47° Northeast 538 619 41,000  Level FlightAware
18:38 37.6290 -92.8040 47° Northeast 539 620 41,000  Level FlightAware
18:39 37.7090 -92.6980 46° Northeast 542 624 41,000  Level FlightAware
18:39 37.7780 -92.6070 46° Northeast 543 625 41,000  Level FlightAware
18:40 37.8390 -92.5320 44° Northeast 541 623 41,000  Level FlightAware
18:41 37.8540 -92.5160 40° Northeast 539 620 41,000  Level FlightAware
18:41 38.0300 -92.3770 32° Northeast 531 611 41,000  Level FlightAware
18:42 38.1100 -92.3160 31° Northeast 530 610 41,000  Level FlightAware
18:43 38.2030 -92.2460 31° Northeast 531 611 41,000  Level FlightAware
18:43 38.2830 -92.1850 31° Northeast 531 611 41,000  Level FlightAware
18:44 38.3720 -92.1200 30° Northeast 531 611 41,000  Level FlightAware
18:45 38.4370 -92.0720 30° Northeast 531 611 41,000  Level FlightAware
18:45 38.5080 -92.0200 30° Northeast 531 611 41,000  Level FlightAware
18:46 38.5910 -91.9590 30° Northeast 531 611 41,000  Level FlightAware
18:47 38.7050 -91.8750 30° Northeast 531 611 41,000  Level FlightAware
18:48 38.8560 -91.7470 33° Northeast 531 611 41,000  Level FlightAware
18:49 38.9370 -91.6850 31° Northeast 531 611 41,000  Level FlightAware
18:49 39.0360 -91.6080 31° Northeast 527 606 41,000  Level FlightAware
18:50 39.0990 -91.5590 31° Northeast 525 604 41,000  Level FlightAware
18:51 39.2060 -91.4760 31° Northeast 525 604 41,000  Level FlightAware
18:52 39.3900 -91.3320 31° Northeast 535 616 41,000 -102 Level FlightAware
18:53 39.4630 -91.2740 32° Northeast 529 609 40,800 -1,024 Descending FlightAware
18:54 39.5580 -91.2000 31° Northeast 533 613 39,600 -1,132 Descending FlightAware
18:55 39.6750 -91.1070 31° Northeast 540 621 38,800 -1,740 Descending FlightAware
18:55 39.7690 -91.0200 35° Northeast 549 632 36,700 -2,154 Descending FlightAware
18:56 39.8470 -90.9410 38° Northeast 545 627 36,000 -1,184 Descending FlightAware
18:56 39.9210 -90.8660 38° Northeast 539 620 35,200 -706 Descending FlightAware
18:57 40.0030 -90.7850 37° Northeast 538 619 35,000 -267 Descending FlightAware
18:58 40.0980 -90.6880 38° Northeast 537 618 34,800 -1,212 Descending FlightAware
18:59 40.2070 -90.5770 38° Northeast 520 598 33,000 -857 Descending FlightAware
19:00 40.3360 -90.4450 38° Northeast 514 592 33,000  Level FlightAware
19:01 40.4420 -90.3360 38° Northeast 520 598 33,000  Level FlightAware
19:02 40.5220 -90.2550 38° Northeast 527 606 33,000  Level FlightAware
19:02 40.6060 -90.1670 38° Northeast 524 603 33,000  Level FlightAware
19:03 40.6830 -90.0870 38° Northeast 524 603 33,000  Level FlightAware
19:04 40.7620 -90.0050 38° Northeast 524 603 33,000  Level FlightAware
19:04 40.8360 -89.9270 39° Northeast 516 594 33,000 -121 Level FlightAware
19:05 40.8950 -89.8480 45° Northeast 514 592 32,800 -2,940 Descending FlightAware
19:06 40.9910 -89.6760 53° Northeast 551 634 28,100 -4,699 Descending FlightAware
19:07 41.0530 -89.5630 54° Northeast 528 608 26,300 -2,519 Descending FlightAware
19:07 41.1060 -89.4650 54° Northeast 498 573 24,700 -2,530 Descending FlightAware
19:08 41.1650 -89.3560 54° Northeast 465 535 22,800 -2,483 Descending FlightAware
19:09 41.2170 -89.2600 54° Northeast 457 526 21,100 -2,400 Descending FlightAware
19:10 41.2690 -89.1640 54° Northeast 445 512 19,400 -2,302 Descending FlightAware
19:10 41.3180 -89.0720 55° Northeast 433 498 17,800 -2,318 Descending FlightAware
19:11 41.3700 -88.9750 54° Northeast 422 486 16,000 -2,427 Descending FlightAware
19:12 41.4200 -88.8820 54° Northeast 418 481 14,200 -2,386 Descending FlightAware
19:13 41.4670 -88.7920 55° Northeast 409 471 12,500 -2,214 Descending FlightAware
19:13 41.5100 -88.7100 55° Northeast 394 453 11,100 -1,157 Descending FlightAware
19:14 41.5460 -88.6220 61° Northeast 335 386 10,900 -146 Descending FlightAware
19:15 41.5710 -88.5590 62° Northeast 299 344 10,900  Level FlightAware
19:15 41.6020 -88.4840 61° Northeast 300 345 10,900 -240 Level FlightAware
19:16 41.6300 -88.4450 46° Northeast 290 334 10,600 -964 Descending FlightAware
19:16 41.6640 -88.4340 14° North 286 329 10,000 -1,418 Descending FlightAware
19:17 41.6990 -88.4260 10° North 287 330 9,300 -1,347 Descending FlightAware
19:17 41.7220 -88.4210 North 285 328 8,900 -1,222 Descending FlightAware
19:18 41.7710 -88.4100 10° North 281 323 8,200 -1,082 Descending FlightAware
19:18 41.8060 -88.4020 10° North 273 314 7,800 -1,071 Descending FlightAware
19:19 41.8410 -88.3940 10° North 271 312 7,200 -1,364 Descending FlightAware
19:19 41.8600 -88.3890 11° North 271 312 6,800 -1,200 Descending FlightAware
19:19 41.8750 -88.3770 31° Northeast 272 313 6,600 -1,050 Descending FlightAware
19:20 41.9010 -88.3490 39° Northeast 269 310 6,100 -1,200 Descending FlightAware
19:20 41.9230 -88.3220 42° Northeast 268 308 5,600 -1,286 Descending FlightAware
19:20 41.9330 -88.2960 63° Northeast 268 308 5,200 -1,250 Descending FlightAware
19:21 41.9470 -88.2490 68° East 268 308 4,600 -1,053 Descending FlightAware
19:21 41.9590 -88.2050 70° East 260 299 4,200 -698 Descending FlightAware
19:21 41.9660 -88.1830 67° East 248 285 4,100 -769 Descending FlightAware
19:22 41.9680 -88.1510 85° East 232 267 3,700 -1,059 Descending FlightAware
19:23 41.9690 -88.0950 89° East 177 204 2,900 -1,014 Descending FlightAware
19:23 41.9690 -88.0660 90° East 167 192 2,500 -941 Descending FlightAware
19:23 41.9690 -88.0400 90° East 159 183 2,100 -857 Descending FlightAware
19:24 41.9690 -88.0110 90° East 141 162 1,700 -783 Descending FlightAware
19:24 41.9690 -87.9980 90° East 139 160 1,500 -615 Descending FlightAware
19:25 41.9690 -87.9780 90° East 134 154 1,300 -448 Descending FlightAware
19:25 41.9690 -87.9610 90° East 133 153 1,000 -716 Descending FlightAware
19:26 41.9690 -87.9240 90° East 136 157 500 -1,250 Descending FlightAware

Login

Don't have an account? Register now (free) for customized features, flight alerts, and more!